IRIDIUM 47 DEB, 40251

Orbit data source: Space-Track

IRIDIUM 47 DEB, 40251 is space debris in LEO originally from a launch on Sat, 20 Dec 1997 UTC launched from the Air Force Western Test Range (AFWTR). Debris objects in space refer to the collection of defunct objects orbiting the Earth. Examples of debris include non-operational satellites, rocket bodies, and fragments generated from explosions, collisions, or faulty payload assembly.

Loading next visibility...
Identifier
40251, 1997-082L
Orbit
LEO
Country
Flag of USUS
Related business
Manufacturer
Unknown
Mission
Spacecraft
Bus & Motor
Unknown
Mass
Unknown
Launch date (UTC)
1997-12-20 (28 years ago)
Launch vehicle
Unknown
Launch site
Air Force Western Test Range (AFWTR)
Object type
Payload
Rocket body
Debris
Shape & HBR
Unknown
Radar Cross Section
Small (<0.1 m²)

Expand to show TLE details & history
Last TLE update: 16 hours ago

TLE from 16 hours ago
0 IRIDIUM 47 DEB
1 40251U 97082L   25261.07457897  .00005649  00000-0  20730-2 0  9999
2 40251  86.3280 131.8711 0131239 311.9600  47.0467 14.27949840562810
Epoch: 2025-09-18T01:47Z
TLE epoch observation values (Epoch: 2025-09-18T01:47:23.623Z)
Latitude
0.00004°
Longitude
107.78128°
Altitude
738.113 km
Speed
7.519 km/s
True Right ascension
08h 47m 29s
True Declination
0° 00' 00"
Sunlit
Object was in daylight at epoch
Visualization orbit readout
Latitude
Unknown
Longitude
Unknown
Altitude
Unknown
Speed
Unknown
Apparent Right ascension
Unknown
Apparent Declination
Unknown
Sunlit
N/A
Visualization observer readout
Local Sidereal Time
11:05:37
Azimuth
Unknown
Elevation
Unknown
Doppler factor
Unknown
Orbital elements
Apogee altitude
889.713 km
Perigee altitude
701.419 km
Semi-major axis
7,173.703 km
Eccentricity
0.01312
Inclination
86.328°
RAAN
131.8711°
Arg. of periapsis
311.96°
True anomaly
48.15978°
Mean anomaly
47.0467°
Eccentric anomaly
47.60199°
Mean motion
3.57214 °/min
Orbital period
100.78 mins
BSTAR
0.002073
Loading maneuver chart data...
Computing Atmospheric mass density...

Documentation

Showing up to 5 results
|